Printer-friendly version

IAU Minor Planet Center

Minor Planet Center

MPEC 2008-B07 : 2008 AM33

The following Minor Planet Electronic Circular may be linked-to from your own Web pages, but must not otherwise be redistributed electronically.


Read MPEC 2008-B06 Read MPEC 2008-B08


M.P.E.C. 2008-B07                                Issued 2008 Jan. 16, 17:39 UT

     The Minor Planet Electronic Circulars contain information on unusual
         minor planets and routine data on comets.  They are published
   on behalf of Commission 20 of the International Astronomical Union by the
          Minor Planet Center, Smithsonian Astrophysical Observatory,
                          Cambridge, MA 02138, U.S.A.

             Prepared using the Tamkin Foundation Computer Network

                              MPC@CFA.HARVARD.EDU
          URL http://www.cfa.harvard.edu/iau/mpc.html  ISSN 1523-6714

                                   2008 AM33

Observations:
     K08A33M* C2008 01 15.44925 10 54 20.26 +07 21 14.6          21.5 V EB007G96
     K08A33M  C2008 01 15.45425 10 54 21.25 +07 21 07.0          20.3 V EB007G96
     K08A33M  C2008 01 15.45925 10 54 22.21 +07 20 59.0          20.6 V EB007G96
     K08A33M  C2008 01 15.46426 10 54 23.14 +07 20 51.1          20.6 V EB007G96
     K08A33M  C2008 01 15.48913 10 54 28.04 +07 20 11.6          20.5 V EB007G96
     K08A33M  C2008 01 15.49715 10 54 29.53 +07 19 57.7          20.5 V EB007G96
     K08A33M  C2008 01 15.50523 10 54 31.16 +07 19 45.5          19.9 V EB007G96
     K08A33M  C2008 01 15.51344 10 54 32.80 +07 19 31.3          20.9 V EB007G96
     K08A33M  C2008 01 15.52706 10 54 35.49 +07 19 09.8          20.1 V EB007G96
     K08A33M  C2008 01 15.52797 10 54 35.64 +07 19 08.3          20.4 V EB007G96
     K08A33M  C2008 01 15.52887 10 54 35.82 +07 19 07.1          20.2 V EB007G96
     K08A33M  C2008 01 15.52974 10 54 36.00 +07 19 05.4          20.1 V EB007G96
     K08A33M  C2008 01 16.11846 10 56 38.88 +07 03 04.6                 EB007J95
     K08A33M  C2008 01 16.14028 10 56 43.19 +07 02 28.8                 EB007J95
     K08A33M  C2008 01 16.17453 10 56 50.12 +07 01 33.0          20.0 R EB007J95
     K08A33M  C2008 01 16.50275 10 57 58.14 +06 52 43.3          19.9 V EB007G96
     K08A33M  C2008 01 16.50330 10 57 58.21 +06 52 42.6          20.5 V EB007G96
     K08A33M  C2008 01 16.50384 10 57 58.35 +06 52 41.8          20.4 V EB007G96
     K08A33M  C2008 01 16.50438 10 57 58.46 +06 52 40.8          20.4 V EB007G96

Observer details:
G96 Mt. Lemmon Survey.  Observers A. D. Grauer, A. Boattini.  Measurers
    E. C. Beshore, A. Boattini, G. J. Garradd, A. R. Gibbs, A. D. Grauer,
    R. E. Hill, R. A. Kowalski, S. M. Larson, R. H. McNaught.  1.5-m reflector
    + CCD.
J95 Great Shefford.  Observer P. Birtwhistle.  0.40-m f/6.0 Schmidt-Cassegrain
    + CCD.

Orbital elements:
2008 AM33                                                Earth MOID = 0.1053 AU
Epoch 2007 Oct. 27.0 TT = JDT 2454400.5                 MPC
M 310.26918              (2000.0)            P               Q
n   0.38902614     Peri.  222.30680     -0.98554403     -0.16813673
a   1.8584470      Node   308.00189     +0.16165188     -0.89647458
e   0.4104401      Incl.    1.51320     +0.05071126     -0.40995533
P   2.53           H   21.2           G   0.15           U   9
Residuals in seconds of arc
080115 G96  0.3+  0.5-    080115 G96  0.1+  0.4-    080116 J95  0.6+  0.1-
080115 G96  0.5+  0.1-    080115 G96  0.4+  0.1+    080116 G96  0.2+  0.0
080115 G96  0.3+  0.0     080115 G96  0.1-  0.1+    080116 G96  0.4-  0.2+
080115 G96  0.4-  0.1+    080115 G96  0.0   0.3+    080116 G96  0.1+  0.3+
080115 G96  0.2+  0.7+    080115 G96  0.1+  0.0     080116 G96  0.2+  0.2+
080115 G96  1.0-  0.3-    080116 J95  0.0   0.0
080115 G96  0.3-  0.5+    080116 J95  0.7-  0.2-

Ephemeris:
2008 AM33                a,e,i = 1.86, 0.41, 2                   q = 1.0957
Date    TT    R. A. (2000) Decl.     Delta      r     Elong.  Phase     V
2008 01 15    10 52.80   +07 33.4    0.294    1.202   132.5    37.1    20.4
2008 01 25    11 29.38   +02 35.7    0.246    1.164   132.3    38.7    20.0
2008 02 04    12 11.22   -03 26.6    0.211    1.134   130.4    41.4    19.7
2008 02 14    12 57.65   -10 08.4    0.188    1.112   127.3    45.0    19.5
2008 02 24    13 46.09   -16 36.0    0.178    1.099   123.9    48.4    19.5
2008 03 05    14 31.99   -21 51.9    0.177    1.096   121.9    50.2    19.5
2008 03 15    15 10.61   -25 30.2    0.183    1.103   122.2    49.7    19.6
2008 03 25    15 39.23   -27 40.7    0.193    1.120   125.2    46.7    19.6
2008 04 04    15 56.89   -28 43.9    0.206    1.146   130.9    41.3    19.7
2008 04 14    16 04.03   -28 56.5    0.222    1.179   139.0    33.9    19.7
2008 04 24    16 02.75   -28 30.0    0.242    1.220   148.9    25.2    19.7
2008 05 04    15 55.96   -27 33.1    0.270    1.265   160.0    15.8    19.7
2008 05 14    15 47.21   -26 17.8    0.307    1.315   170.7     7.1    19.8
2008 05 24    15 39.79   -24 59.8    0.357    1.368   173.0     5.2    20.1
2008 06 03    15 35.44   -23 51.8    0.419    1.422   164.0    11.4    20.8
2008 06 13    15 34.91   -23 01.6    0.496    1.478   154.4    17.2    21.4
2008 06 23    15 38.09   -22 30.6    0.585    1.535   145.6    22.0    22.0

Sonia Keys                   (C) Copyright 2008 MPC           M.P.E.C. 2008-B07

Read MPEC 2008-B06 Read MPEC 2008-B08


Our Web policy. Index to the CBAT/MPC/ICQ pages.


Valid HTML 4.01!